Regional Weather Roundup
Issued by NWS Kansas City/Pleasant Hill, MO

Home | Current Version | Previous Version | Graphics & Text | Print | Product List | Glossary Off
Versions: 1 2 3 4 5 6 7 8 9 10 11 12 13 14 15 16 17 18 19 20 21 22 23 24 25 26 27 28

000
ASUS43 KEAX 180910
RWREAX

WEATHER ROUNDUP FOR EASTERN KANSAS AND NORTHWEST MISSOURI
NATIONAL WEATHER SERVICE KANSAS CITY/PLEASANT HILL MO
300 AM CST WED JAN 18 2017

KSZ040-057-103>105-MOZ028-029-037-043-181000-
...KANSAS CITY METROPOLITAN AREA...

CITY           SKY/WX    TMP DP  RH WIND       PRES   REMARKS
K.C. INTL        N/A     27  25  92 SW5       30.15S WCI  22
K.C. DOWNTOWN  CLOUDY    32  31  96 SW3       30.16S
LEES SUMMIT    FOG       31  30  96 SW7       30.15F VSB 1/4 WCI  24
OLATHE - IXD   FOG       28  27  96 S3        30.15F VSB 1/2
OLATHE - OJC   FOG       30  30 100 S5        30.15S VSB 1/4 WCI  25
LAWRENCE       FOG       24  24 100 CALM      30.16S VSB 1/4

$$

MOZ001>008-011>017-020>025-030>033-038>040-044>046-053-054-181000-
...NORTHERN AND CENTRAL MISSOURI...

CITY           SKY/WX    TMP DP  RH WIND       PRES   REMARKS
ST. JOSEPH     FOG       28  28 100 S5        30.17R VSB 1/4 WCI  23
MOSBY          PTSUNNY   27  27 100 CALM      30.17S FOG
WARRENSBURG    CLOUDY    36  34  93 S5        30.17F WCI  32
WHITEMAN AFB   CLOUDY    36  36 100 SW7       30.15F WCI  31
CLINTON        CLOUDY    37  36  93 CALM      30.18F
SEDALIA        CLOUDY    38  35  89 SW3       30.18F
WARSAW         NOT AVBL
CHILLICOTHE      N/A     31  30  96 CALM      30.18S
KIRKSVILLE     CLOUDY    33  31  92 SW7       30.17R WCI  27

$$

MOZ041-047>049-056>058-063>065-088>090-097-181000-
...EASTERN AND SOUTHERN MISSOURI...

CITY           SKY/WX    TMP DP  RH WIND       PRES   REMARKS
ST. LOUIS INTL CLOUDY    40  34  79 NW9       30.19S WCI  34
SPIRIT OF STL  CLOUDY    39  34  82 W7        30.19S WCI  34
COLUMBIA       CLOUDY    36  32  85 W8        30.18F WCI  30
JEFFERSON CITY CLOUDY    37  32  82 NW3       30.19F
ROLLA          CLOUDY    36  35  96 NW6       30.16F WCI  31
OSAGE BEACH    CLOUDY    37  34  89 CALM      30.18F
SPRINGFIELD    CLOUDY    36  35  96 CALM      30.17R FOG
BRANSON        CLOUDY    37  37 100 CALM      30.18S
JOPLIN         CLOUDY    36  36 100 SE7       30.19R FOG     WCI  30
WEST PLAINS    CLOUDY    37  36  96 N5        30.17S FOG     WCI  33

$$

IAZ060-094-KSZ022-034>040-054-083-096-NEZ052-066-093-181000-
...KANSAS...SOUTHEAST NEBRASKA AND IOWA...

CITY           SKY/WX    TMP DP  RH WIND       PRES   REMARKS
TOPEKA         CLOUDY    26  23  88 CALM      30.14F FOG
MANHATTAN      CLOUDY    25  23  92 CALM      30.14F
EMPORIA        PTCLDY    28  27  96 S6        30.14R WCI  22
CHANUTE        PTCLDY    30  29  96 SE3       30.16S
WICHITA        CLOUDY    36  32  85 CALM      30.13S
OMAHA          CLEAR     27  22  81 E6        30.08F WCI  20
LINCOLN        CLOUDY    27  25  92 S6        30.09F WCI  20
FALLS CITY     CLOUDY    26  24  92 S8        30.12F WCI  18
LAMONI         FOG       31  31 100 S6        30.13R VSB 1/4 WCI  25
DES MOINES     CLOUDY    33  30  88 W8        30.12S WCI  26

$$





USA.gov is the U.S. government's official web portal to all federal, state and local government web resources and services.